TimeCDT,TemperatureF,Dew PointF,Humidity,Sea Level PressureIn,VisibilityMPH,Wind Direction,Wind SpeedMPH,Gust SpeedMPH,PrecipitationIn,Events,Conditions,WindDirDegrees,DateUTC
12:53 AM,77.0,66.0,69,29.95,10.0,South,8.1,-,N/A,,Clear,170,2013-09-20 05:53:00
1:53 AM,75.9,66.0,71,29.96,10.0,South,8.1,-,N/A,,Clear,180,2013-09-20 06:53:00
2:53 AM,75.9,66.0,71,29.94,10.0,South,9.2,-,N/A,,Clear,190,2013-09-20 07:53:00
3:53 AM,75.0,66.9,76,29.94,10.0,South,8.1,-,N/A,,Clear,180,2013-09-20 08:53:00
4:53 AM,73.9,66.9,79,29.94,10.0,South,8.1,-,N/A,,Clear,190,2013-09-20 09:53:00
5:53 AM,73.0,68.0,84,29.93,10.0,South,5.8,-,N/A,,Clear,180,2013-09-20 10:53:00
6:53 AM,72.0,68.0,87,29.93,10.0,SSE,4.6,-,N/A,,Mostly Cloudy,160,2013-09-20 11:53:00
7:53 AM,75.0,69.1,82,29.93,10.0,South,4.6,-,N/A,,Overcast,180,2013-09-20 12:53:00
8:53 AM,73.0,71.1,93,29.93,10.0,South,4.6,-,0.03,,Overcast,180,2013-09-20 13:53:00
9:53 AM,73.9,72.0,93,29.94,2.0,SW,3.5,-,0.06,Rain,Rain,220,2013-09-20 14:53:00
10:01 AM,73.4,71.6,94,29.95,3.0,SW,3.5,-,0.00,Rain,Light Rain,220,2013-09-20 15:01:00
10:14 AM,73.4,73.4,100,29.95,2.0,Calm,Calm,-,0.05,Rain,Rain,0,2013-09-20 15:14:00
10:25 AM,73.4,71.6,94,29.95,1.0,South,3.5,-,0.12,Rain,Light Rain,180,2013-09-20 15:25:00
10:30 AM,73.4,73.4,100,29.94,2.0,Calm,Calm,-,0.13,Rain,Light Rain,0,2013-09-20 15:30:00
10:34 AM,73.4,73.4,100,29.94,4.0,Calm,Calm,-,0.13,Rain,Light Rain,0,2013-09-20 15:34:00
10:41 AM,73.4,71.6,94,29.94,7.0,Calm,Calm,-,0.13,Rain,Light Rain,0,2013-09-20 15:41:00
10:53 AM,73.9,72.0,93,29.92,4.0,Calm,Calm,-,0.14,Rain,Light Rain,0,2013-09-20 15:53:00
11:10 AM,73.4,71.6,94,29.92,6.0,Calm,Calm,-,0.02,Rain,Light Rain,0,2013-09-20 16:10:00
11:38 AM,73.4,71.6,94,29.92,8.0,North,8.1,-,0.04,Rain,Light Rain,360,2013-09-20 16:38:00
11:49 AM,71.6,69.8,94,29.92,10.0,Variable,3.5,-,0.04,Rain,Light Rain,0,2013-09-20 16:49:00
11:53 AM,72.0,71.1,97,29.91,10.0,North,5.8,-,0.05,Rain,Light Rain,10,2013-09-20 16:53:00
12:18 PM,71.6,71.6,100,29.90,3.0,NNE,9.2,-,0.09,Rain,Rain,20,2013-09-20 17:18:00
12:36 PM,71.6,71.6,100,29.90,2.5,NNE,10.4,-,0.20,Rain,Heavy Rain,20,2013-09-20 17:36:00
12:53 PM,71.1,70.0,96,29.89,2.0,NNE,5.8,-,0.37,Rain,Rain,30,2013-09-20 17:53:00
1:01 PM,71.6,69.8,94,29.90,2.0,North,-9999.0,-,0.04,Rain,Rain,0,2013-09-20 18:01:00
1:08 PM,71.6,69.8,94,29.90,-9999.0,North,-9999.0,-,0.04,,Unknown,0,2013-09-20 18:08:00
1:53 PM,-9999,-9999,N/A,29.87,-9999.0,North,-9999.0,-,0.04,,Unknown,0,2013-09-20 18:53:00
2:53 PM,-9999,-9999,N/A,29.86,-9999.0,North,-9999.0,-,N/A,,Unknown,0,2013-09-20 19:53:00
4:53 PM,-9999,-9999,N/A,29.84,-9999.0,North,-9999.0,-,N/A,,Unknown,0,2013-09-20 21:53:00
5:53 PM,-9999,-9999,N/A,29.84,-9999.0,North,-9999.0,-,N/A,,Unknown,0,2013-09-20 22:53:00
6:53 PM,-9999,-9999,N/A,29.84,-9999.0,North,-9999.0,-,N/A,,Unknown,0,2013-09-20 23:53:00
7:53 PM,-9999,-9999,N/A,29.85,-9999.0,North,-9999.0,-,N/A,,Unknown,0,2013-09-21 00:53:00
8:53 PM,-9999,-9999,N/A,29.84,-9999.0,North,-9999.0,-,N/A,,Unknown,0,2013-09-21 01:53:00
9:53 PM,-9999,-9999,N/A,29.83,-9999.0,North,-9999.0,-,N/A,,Unknown,0,2013-09-21 02:53:00
10:53 PM,-9999,-9999,N/A,29.84,-9999.0,North,-9999.0,-,N/A,,Unknown,0,2013-09-21 03:53:00
11:53 PM,-9999,-9999,N/A,29.83,-9999.0,North,-9999.0,-,N/A,,Unknown,0,2013-09-21 04:53:00